| time (UTC) | temp F | wind direction | speed knots | gust knots | rain 1hr in | rain 24hr in | rain mn in | humidity % | barometer mb |
| 20260510104506 | 50 | 221 | 0.0 | 0.0 | 0.00 | 0.30 | 0.00 | 95 | 1011.1 |
| 20260510103010 | 50 | 221 | 0.0 | 0.0 | 0.00 | 0.31 | 0.00 | 95 | 1010.9 |
| 20260510101504 | 50 | 221 | 0.0 | 0.0 | 0.00 | 0.31 | 0.00 | 95 | 1010.8 |
| 20260510100004 | 50 | 219 | 0.0 | 0.0 | 0.00 | 0.32 | 0.00 | 95 | 1010.7 |
| 20260510094503 | 50 | 346 | 0.0 | 0.0 | 0.00 | 0.32 | 0.00 | 95 | 1010.6 |
| 20260510093009 | 50 | 346 | 0.0 | 0.0 | 0.00 | 0.33 | 0.00 | 95 | 1010.3 |
| 20260510091512 | 50 | 346 | 0.0 | 0.0 | 0.00 | 0.34 | 0.00 | 95 | 1010.3 |
| 20260510090003 | 50 | 346 | 0.0 | 0.0 | 0.00 | 0.34 | 0.00 | 95 | 1010.2 |
| 20260510084505 | 50 | 346 | 0.0 | 0.0 | 0.00 | 0.36 | 0.00 | 95 | 1009.9 |
| 20260510083004 | 50 | 218 | 0.0 | 0.0 | 0.00 | 0.37 | 0.00 | 95 | 1009.8 |
| 20260510081511 | 50 | 1 | 0.0 | 0.0 | 0.00 | 0.37 | 0.00 | 95 | 1010.2 |
| 20260510080010 | 49 | 1 | 0.0 | 0.0 | 0.00 | 0.38 | 0.00 | 95 | 1010.1 |
| 20260510074504 | 49 | 1 | 0.0 | 0.0 | 0.00 | 0.40 | 0.00 | 94 | 1010.3 |
| 20260510073005 | 50 | 1 | 0.0 | 0.0 | 0.00 | 0.42 | 0.00 | 95 | 1010.6 |
| 20260510071508 | 50 | 1 | 0.0 | 0.0 | 0.00 | 0.45 | 0.00 | 95 | 1010.6 |
| 20260510070022 | 50 | 1 | 0.0 | 0.0 | 0.00 | 0.45 | 0.00 | 95 | 1010.7 |
| 20260510064523 | 49 | 1 | 0.0 | 0.0 | 0.00 | 0.45 | 0.00 | 95 | 1010.8 |
| 20260510063019 | 49 | 1 | 0.0 | 0.0 | 0.00 | 0.45 | 0.00 | 94 | 1010.6 |
| 20260510061503 | 49 | 353 | 0.0 | 0.0 | 0.00 | 0.45 | 0.00 | 95 | 1010.2 |
| 20260510060008 | 49 | 316 | 0.0 | 0.0 | 0.00 | 0.45 | 0.00 | 94 | 1010.4 |
| 20260510054518 | 49 | 5 | 0.0 | 0.0 | 0.00 | 0.45 | 0.00 | 94 | 1010.2 |
| 20260510053026 | 49 | 360 | 0.0 | 0.0 | 0.00 | 0.45 | 0.00 | 94 | 1010.3 |
| 20260510051526 | 49 | 360 | 0.0 | 0.0 | 0.00 | 0.45 | 0.00 | 94 | 1010.4 |
| 20260510050014 | 49 | 360 | 0.0 | 0.0 | 0.00 | 0.45 | 0.00 | 94 | 1010.3 |
| 20260510044514 | 50 | 360 | 0.0 | 0.0 | 0.00 | 0.45 | 0.00 | 94 | 1010.2 |
| 20260510043017 | 50 | 360 | 0.0 | 0.0 | 0.00 | 0.45 | 0.00 | 94 | 1010.3 |
| 20260510041522 | 50 | 360 | 0.0 | 0.0 | 0.00 | 0.45 | 0.00 | 94 | 1010.1 |
| 20260510040029 | 50 | 360 | 0.0 | 0.0 | 0.00 | 0.45 | 0.00 | 94 | 1010.1 |
| 20260510034522 | 51 | 360 | 0.0 | 0.0 | 0.00 | 0.45 | 0.45 | 94 | 1010.1 |
| 20260510033018 | 51 | 360 | 0.0 | 0.0 | 0.00 | 0.45 | 0.45 | 94 | 1010.3 |
| 20260510031519 | 51 | 360 | 0.0 | 0.0 | 0.00 | 0.45 | 0.45 | 94 | 1010.4 |
| 20260510030020 | 51 | 359 | 0.0 | 0.0 | 0.00 | 0.45 | 0.45 | 94 | 1010.4 |
| 20260510024526 | 51 | 352 | 0.0 | 0.0 | 0.00 | 0.45 | 0.45 | 94 | 1010.3 |
| 20260510023007 | 51 | 352 | 0.0 | 0.0 | 0.00 | 0.45 | 0.45 | 94 | 1010.1 |
| 20260510021512 | 52 | 352 | 0.0 | 0.0 | 0.00 | 0.45 | 0.45 | 94 | 1010.0 |
| 20260510020018 | 52 | 347 | 0.0 | 0.0 | 0.00 | 0.45 | 0.45 | 94 | 1009.7 |
| 20260510014523 | 52 | 347 | 0.0 | 0.0 | 0.00 | 0.45 | 0.45 | 94 | 1010.0 |
| 20260510013004 | 52 | 347 | 0.0 | 0.0 | 0.00 | 0.45 | 0.45 | 94 | 1009.8 |
| 20260510011512 | 52 | 347 | 0.0 | 0.0 | 0.00 | 0.45 | 0.45 | 94 | 1009.6 |
| 20260510010015 | 52 | 347 | 0.0 | 0.0 | 0.00 | 0.45 | 0.45 | 93 | 1009.7 |
| 20260510004529 | 53 | 1 | 0.0 | 0.0 | 0.00 | 0.45 | 0.45 | 94 | 1009.5 |
| 20260510003003 | 53 | 284 | 0.0 | 0.0 | 0.00 | 0.45 | 0.45 | 93 | 1009.6 |
| 20260510001507 | 53 | 187 | 0.0 | 0.0 | 0.00 | 0.45 | 0.45 | 93 | 1009.3 |
| 20260510000028 | 53 | 195 | 0.0 | 0.0 | 0.00 | 0.45 | 0.45 | 93 | 1009.0 |
| 20260509234528 | 53 | 191 | 0.0 | 0.0 | 0.00 | 0.45 | 0.45 | 93 | 1008.9 |
| 20260509233016 | 53 | 29 | 0.0 | 0.9 | 0.00 | 0.45 | 0.45 | 93 | 1008.2 |
| 20260509231504 | 54 | 99 | 0.0 | 4.3 | 0.00 | 0.45 | 0.45 | 93 | 1008.2 |
| 20260509230004 | 54 | 307 | 0.0 | 1.7 | 0.00 | 0.45 | 0.45 | 93 | 1008.4 |
| 20260509224529 | 54 | 58 | 0.0 | 2.6 | 0.00 | 0.45 | 0.45 | 93 | 1008.6 |
| 20260509223016 | 54 | 70 | 0.0 | 0.0 | 0.00 | 0.45 | 0.45 | 94 | 1008.5 |
| 20260509221530 | 54 | 71 | 0.0 | 0.0 | 0.00 | 0.45 | 0.45 | 93 | 1008.6 |
| 20260509220021 | 54 | 75 | 0.0 | 0.0 | 0.00 | 0.45 | 0.45 | 93 | 1008.8 |
| 20260509214527 | 54 | 209 | 0.0 | 2.6 | 0.00 | 0.45 | 0.45 | 93 | 1008.6 |
| 20260509213013 | 54 | 151 | 0.0 | 0.0 | 0.01 | 0.45 | 0.45 | 94 | 1008.7 |
| 20260509211518 | 54 | 359 | 0.0 | 0.0 | 0.01 | 0.45 | 0.45 | 93 | 1008.6 |
| 20260509210022 | 54 | 150 | 0.0 | 0.0 | 0.01 | 0.45 | 0.45 | 93 | 1008.7 |
| 20260509204507 | 53 | 24 | 0.0 | 2.6 | 0.01 | 0.45 | 0.45 | 94 | 1009.2 |
| 20260509203010 | 53 | 166 | 0.0 | 0.0 | 0.00 | 0.44 | 0.44 | 94 | 1009.2 |
| 20260509201516 | 53 | 354 | 0.0 | 0.0 | 0.01 | 0.44 | 0.44 | 94 | 1009.6 |
| 20260509200018 | 53 | 117 | 0.0 | 1.7 | 0.02 | 0.44 | 0.44 | 94 | 1009.8 |
| 20260509194527 | 53 | 77 | 0.0 | 0.0 | 0.03 | 0.44 | 0.44 | 94 | 1010.0 |
| 20260509193009 | 53 | 139 | 0.0 | 0.0 | 0.05 | 0.44 | 0.44 | 94 | 1010.3 |
| 20260509191510 | 52 | 140 | 0.0 | 0.0 | 0.05 | 0.43 | 0.43 | 94 | 1010.6 |
| 20260509190040 | 52 | 193 | 0.0 | 0.0 | 0.06 | 0.42 | 0.42 | 93 | 1010.8 |
| 20260509184531 | 51 | 195 | 0.0 | 0.0 | 0.07 | 0.41 | 0.41 | 93 | 1010.8 |
| 20260509183029 | 51 | 217 | 0.0 | 0.0 | 0.06 | 0.39 | 0.39 | 93 | 1010.9 |
| 20260509181510 | 51 | 219 | 0.0 | 0.9 | 0.06 | 0.38 | 0.38 | 93 | 1010.7 |
| 20260509180027 | 51 | 275 | 0.0 | 0.0 | 0.05 | 0.36 | 0.36 | 93 | 1010.7 |
| 20260509174524 | 51 | 275 | 0.0 | 0.0 | 0.04 | 0.34 | 0.34 | 92 | 1010.7 |
| 20260509173021 | 51 | 275 | 0.0 | 0.0 | 0.04 | 0.33 | 0.33 | 93 | 1010.7 |
| 20260509171534 | 50 | 275 | 0.0 | 0.0 | 0.05 | 0.32 | 0.32 | 92 | 1010.6 |
| 20260509170023 | 50 | 275 | 0.0 | 0.0 | 0.05 | 0.31 | 0.31 | 92 | 1010.8 |
| 20260509164515 | 50 | 275 | 0.0 | 0.0 | 0.05 | 0.30 | 0.30 | 92 | 1011.1 |
| 20260509163004 | 50 | 275 | 0.0 | 0.0 | 0.04 | 0.29 | 0.29 | 93 | 1011.5 |
| 20260509161522 | 49 | 278 | 0.0 | 0.0 | 0.03 | 0.27 | 0.27 | 92 | 1011.5 |
| 20260509160011 | 49 | 260 | 0.0 | 0.0 | 0.03 | 0.26 | 0.26 | 92 | 1011.7 |
| 20260509154511 | 49 | 331 | 0.0 | 0.0 | 0.02 | 0.25 | 0.25 | 92 | 1011.8 |
| 20260509153005 | 49 | 331 | 0.0 | 0.0 | 0.03 | 0.25 | 0.25 | 92 | 1011.8 |
| 20260509151503 | 48 | 330 | 0.0 | 0.0 | 0.03 | 0.24 | 0.24 | 92 | 1012.0 |
| 20260509150029 | 48 | 330 | 0.0 | 0.0 | 0.03 | 0.23 | 0.23 | 93 | 1012.1 |
| 20260509144508 | 48 | 330 | 0.0 | 0.0 | 0.04 | 0.23 | 0.23 | 93 | 1012.0 |
| 20260509143018 | 48 | 348 | 0.0 | 0.0 | 0.03 | 0.22 | 0.22 | 93 | 1012.2 |
| 20260509141508 | 47 | 348 | 0.0 | 0.0 | 0.03 | 0.21 | 0.21 | 93 | 1012.2 |
| 20260509140005 | 47 | 348 | 0.0 | 0.0 | 0.02 | 0.20 | 0.20 | 93 | 1012.3 |
| 20260509134508 | 47 | 348 | 0.0 | 0.0 | 0.01 | 0.19 | 0.19 | 93 | 1012.4 |
| 20260509133012 | 46 | 348 | 0.0 | 0.0 | 0.01 | 0.19 | 0.19 | 93 | 1012.2 |
| 20260509131518 | 46 | 359 | 0.0 | 0.0 | 0.00 | 0.18 | 0.18 | 93 | 1012.1 |
| 20260509130039 | 45 | 359 | 0.0 | 0.0 | 0.01 | 0.18 | 0.18 | 93 | 1012.1 |
| 20260509124504 | 45 | 359 | 0.0 | 0.0 | 0.01 | 0.18 | 0.18 | 93 | 1012.1 |
| 20260509123018 | 45 | 359 | 0.0 | 0.0 | 0.02 | 0.18 | 0.18 | 93 | 1012.2 |
| 20260509121520 | 45 | 349 | 0.0 | 0.0 | 0.03 | 0.18 | 0.18 | 93 | 1012.5 |
| 20260509120020 | 44 | 349 | 0.0 | 0.0 | 0.02 | 0.17 | 0.17 | 93 | 1012.7 |
| 20260509114503 | 44 | 349 | 0.0 | 0.0 | 0.02 | 0.17 | 0.17 | 93 | 1012.7 |
| 20260509113007 | 44 | 349 | 0.0 | 0.0 | 0.02 | 0.16 | 0.16 | 93 | 1012.5 |
| 20260509111513 | 44 | 349 | 0.0 | 0.0 | 0.01 | 0.15 | 0.15 | 93 | 1012.5 |
| 20260509110022 | 43 | 349 | 0.0 | 0.0 | 0.02 | 0.15 | 0.15 | 93 | 1012.5 |